Location: Tamazert
(32.6352°N, 5.2072°W)
Time: 04:41:38
(UTC+00:00)

Vanguard 1 Rocket - Pass Details

Date: 11 October 2022
Orbit: 650 x 4225 km, 34.3° (Epoch: 05 December)

Event Time Altitude Azimuth Distance (km) Brightness Sun altitude
Rises 16:01:16 0° 226° (SW) 7,788 13.4 21.7°
Reaches altitude 10° 16:06:16 10° 223° (SW) 7,042 13.3 20.7°
Maximum altitude 16:31:33 63° 149° (SSE) 4,396 11.0 15.8°
Drops below altitude 10° 16:52:10 10° 75° (ENE) 5,958 11.0 11.7°
Sets 16:55:55 0° 72° (ENE) 6,602 11.1 10.9°
